SCP
-0 -0 -0 -0 -0 -0 0 -0 -0 -0 -0 0 -0 -0 -0 -0 -0 0 0 -0 -0 -0 0 0 0 0 0 0 0 -0 -0 -0 -0 -0 -0 -0 -0 -0 -0 -0 -0 -0 -0 -0 -0 -0 0 0 0
-0 -0 0 -0 -0 -0 -0 -0 0 -0 -0 0 -0 -0 -0 0 -0 -0 -0 -0 -0 -0 -0 0 -0 -0 -0 0 -0 -0 -0 -0 -0 -0 -0 -0 -0 -0 -0 -0 -0 -0 -0 -0 -0 0 0 0 0
-0 -0 -0 -0 -0 -0 0 -0 -0 -0 -0 0 -0 -0 -0 -0 -0 -0 -0 -0 -0 0 -0 0 -0 -0 -0 -0 0 0 -0 -0 -0 -0 -0 -0 -0 -0 -0 -0 -0 -0 -0 -0 -0 0 0 0 -0
-0 -0 -0 -0 0 0 0 -0 -0 -0 0 -0 -0 -0 -0 -0 -0 -0 -0 -0 0 -0 -0 0 -0 -0 -0 -0 0 0 0 -0 -0 -0 -0 -0 -0 -0 -0 -0 -0 -0 -0 -0 0 0 0 -0 -0
0 -0 0 0 0 0 0 0 0 0 -0 -0 -0 -0 -0 -0 -0 0 -0 -0 -0 -0 -0 -0 -0 -0 -0 -0 -0 -0 -0 -0 -0 0 -0 -0 -0 -0 -0 -0 -0 -0 0 0 -0 0 0 -0 -0
0 0 0 0 0 0 0 0 0 0 -0 -0 -0 -0 -0 -0 -0 0 -0 -0 -0 -0 -0 -0 -0 -0 -0 -0 -0 -0 -0 -0 -0 -0 0 -0 -0 -0 -0 -0 0 0 0 0 -0 -0 -0 0 -0
-0 0 -0 -0 -0 0 0 0 0 0 -0 -0 -0 -0 -0 -0 0 0 -0 -0 -0 -0 -0 0 -0 -0 -0 -0 -0 -0 -0 -0 -0 -0 0 -0 -0 -0 -0 0 0 -0 0 -0 -0 -0 0 0 -0
-0 0 -0 -0 0 0 0 0 0 0 0 -0 -0 -0 -0 -0 0 -0 -0 -0 -0 -0 -0 -0 -0 -0 -0 -0 -0 -0 -0 -0 0 -0 -0 -0 -0 -0 -0 0 -0 -0 0 0 -0 -0 0 0 -0
-0 0 -0 -0 -0 -0 0 0 0 0 0 0 0 -0 -0 -0 0 -0 0 -0 -0 -0 -0 -0 -0 -0 -0 -0 -0 -0 -0 0 -0 0 0 -0 0 -0 -0 0 -0 -0 0 0 0 0 -0 -0 0
0 -0 -0 -0 -0 -0 0 0 0 0 0 0 -0 -0 -0 0 0 -0 -0 -0 -0 -0 -0 -0 -0 -0 0 -0 0 -0 -0 0 0 0 -0 -0 -0 0 -0 -0 0 0 0 0 0 0 0 0 0
0 -0 0 -0 -0 -0 -0 -0 0 0 0 0 -0 -0 -0 0 0 0 -0 -0 -0 -0 0 -0 -0 -0 0 -0 -0 0 -0 -0 0 -0 0 0 0 -0 -0 -0 0 0 0 0 0 0 1 1 0
0 0 -0 -0 -0 -0 -0 -0 -0 -0 0 0 -0 -0 -0 -0 0 0 -0 -0 -0 -0 -0 -0 -0 -0 0 -0 -0 0 0 0 0 0 0 -0 0 0 0 0 0 0 0 0 0 0 0 0 0
0 -0 0 -0 -0 -0 -0 -0 -0 -0 0 -0 -0 -0 -0 -0 0 0 -0 -0 -0 -0 0 -0 -0 -0 0 -0 -0 0 0 0 0 -0 0 0 0 0 0 0 0 -0 0 0 0 0 0 0 0
0 -0 -0 -0 -0 -0 0 0 -0 0 0 -0 -0 -0 -0 -0 0 -0 -0 -0 0 -0 -0 -0 -0 -0 -0 -0 -0 -0 -0 0 0 0 0 0 0 0 0 0 0 0 0 0 0 0 0 0 0
0 -0 -0 -0 -0 -0 -0 -0 0 -0 0 -0 -0 -0 0 0 0 -0 -0 -0 0 0 -0 -0 0 0 -0 -0 -0 -0 0 0 0 0 0 0 0 -0 0 0 0 -0 0 0 0 0 0 0 0
0 0 0 -0 -0 -0 0 -0 -0 -0 0 -0 -0 -0 0 0 -0 0 -0 -0 -0 -0 -0 0 -0 -0 -0 -0 -0 0 0 -0 0 0 0 0 0 0 0 0 0 0 0 0 0 0 0 0 0
0 0 0 0 -0 -0 0 0 0 0 -0 -0 -0 -0 -0 -0 -0 0 -0 -0 -0 -0 -0 0 -0 -0 -0 -0 0 -0 0 -0 0 0 0 0 0 0 0 0 -0 0 0 0 0 0 0 0 0
0 0 0 0 0 0 -0 -0 0 -0 -0 0 -0 -0 0 -0 -0 0 -0 -0 -0 -0 -0 -0 -0 -0 0 -0 0 -0 -0 0 0 0 0 0 0 0 0 0 0 0 0 0 0 0 1 0 0
-0 -0 -0 0 0 0 0 0 0 0 -0 -0 0 0 0 0 -0 -0 -0 -0 -0 -0 -0 0 -0 -0 -0 -0 0 0 -0 0 -0 0 0 0 0 0 0 0 -0 0 0 -0 0 0 0 0 0
0 -0 0 0 -0 0 -0 0 -0 -0 -0 -0 0 0 0 0 0 -0 -0 -0 -0 -0 -0 0 -0 -0 -0 -0 -0 0 0 0 0 0 0 0 0 0 0 0 0 0 0 0 0 0 0 0 0
0 0 0 0 -0 0 -0 -0 0 -0 -0 -0 0 -0 0 -0 -0 -0 -0 -0 -0 -0 -0 0 -0 -0 -0 -0 0 -0 -0 -0 -0 -0 0 0 0 0 0 0 0 0 -0 0 -0 0 0 0 0
0 0 0 -0 0 0 0 -0 0 -0 -0 0 0 0 -0 0 -0 0 -0 -0 -0 0 0 -0 -0 -0 -0 0 -0 0 0 -0 0 -0 0 0 0 0 0 0 -0 0 0 0 0 0 0 0 0
0 0 0 0 0 -0 0 0 0 0 -0 -0 0 0 -0 0 0 0 0 0 -0 -0 0 0 0 -0 -0 -0 -0 0 0 0 -0 -0 0 0 0 -0 0 0 0 0 0 -0 0 0 0 0 0
0 0 0 0 0 0 0 0 0 0 0 -0 0 0 -0 0 -0 0 0 0 0 -0 -0 -0 0 0 -0 -0 -0 -0 -0 0 -0 0 -0 -0 0 -0 0 0 0 0 -0 0 0 -0 0 0 0
0 0 0 0 0 0 0 0 0 0 0 -0 0 -0 -0 0 -0 -0 -0 -0 0 -0 -0 -0 0 0 -0 -0 -0 -0 -0 0 -0 0 -0 -0 -0 0 -0 -0 -0 0 0 0 0 -0 0 0 0
0 0 0 0 0 0 0 0 0 0 0 0 0 0 -0 -0 0 -0 -0 -0 0 0 -0 -0 0 0 0 0 -0 -0 0 0 0 -0 0 0 0 -0 0 -0 -0 -0 -0 0 -0 -0 -0 0 0
0 0 0 0 0 -0 0 0 0 0 0 0 0 0 1 0 -0 0 0 0 0 0 -0 -0 0 0 0 0 0 0 0 0 -0 0 0 0 0 -0 -0 0 -0 -0 -0 -0 -0 0 0 0 0
0 0 0 0 0 0 0 0 0 0 2 2 1 1 1 0 1 0 0 0 0 0 0 0 0 0 0 0 0 0 0 0 -0 0 0 0 0 -0 -0 0 0 -0 -0 -0 -0 0 0 0 0
0 0 0 0 0 0 0 0 0 1 2 1 1 0 0 0 0 0 0 0 0 0 0 1 0 0 0 0 0 0 0 0 0 0 0 0 0 0 -0 0 0 -0 -0 -0 -0 -0 0 0 0
0 0 0 0 0 0 0 1 0 1 1 0 0 0 0 0 0 0 0 0 0 0 0 0 0 1 0 0 0 0 0 0 0 0 0 0 0 0 -0 -0 -0 0 -0 -0 -0 0 -0 0 0
Wind_Speed_500mb
10 17 4 13 3 8 3 6 17 17 9 36 33 37 36 32 14 29 64 55 53 46 45 40 38 36 33 29 27 25 21 21 20 19 19 18 17 20 23 23 25 29 31 34 36 36 35 38 43
11 6 9 7 7 4 5 7 17 4 39 35 38 57 43 41 58 69 62 59 52 47 40 41 37 32 30 26 26 22 22 23 20 23 22 21 18 20 23 23 25 27 30 35 36 35 35 39 44
18 11 4 6 6 3 6 6 14 24 37 33 46 40 35 54 68 60 68 56 50 48 40 40 36 30 26 26 24 23 24 23 21 22 23 21 22 21 22 22 27 26 29 34 34 36 37 40 44
10 8 12 6 3 20 21 17 7 27 38 36 36 30 55 47 60 68 63 56 52 43 36 39 33 29 27 24 25 24 25 24 22 23 24 23 22 24 23 25 25 28 27 29 32 33 38 38 47
12 9 7 5 9 4 10 5 11 23 21 29 63 47 58 49 61 61 61 50 54 42 38 36 30 28 26 22 27 23 26 25 25 24 24 23 24 25 23 26 25 28 30 30 30 32 36 35 42
10 7 6 6 10 4 14 19 19 26 30 47 61 56 47 60 60 57 55 54 49 43 36 31 28 27 24 21 25 24 24 24 24 23 24 27 28 29 27 29 28 30 29 29 31 32 33 33 40
14 4 1 20 10 9 4 9 12 6 39 51 50 43 50 60 55 56 54 49 43 44 29 24 25 24 22 22 23 21 20 22 23 25 25 28 29 29 29 29 31 31 29 29 30 31 30 36 44
17 7 4 15 20 13 5 10 20 16 29 39 46 41 54 64 56 61 54 40 62 41 27 26 15 23 21 24 23 20 19 21 24 28 34 36 32 35 33 31 32 31 30 30 33 33 35 40 51
14 6 3 14 21 14 13 9 10 7 8 9 15 61 67 64 55 63 55 55 48 34 36 26 30 24 18 22 24 22 20 24 28 34 32 27 30 26 27 27 32 34 32 36 37 39 41 47 44
12 2 10 22 18 28 25 16 16 9 8 22 49 63 68 64 55 57 59 47 42 35 31 31 28 25 33 22 26 23 22 28 25 20 26 34 28 23 23 33 35 37 43 41 34 26 27 24 29
17 8 13 21 38 50 44 37 23 11 16 33 69 75 70 62 54 51 53 53 42 31 39 38 20 23 42 18 27 25 32 27 30 23 29 27 23 16 30 35 40 35 33 20 30 26 20 21 19
13 30 39 41 29 53 43 48 34 27 18 16 63 71 69 61 55 51 49 49 40 41 42 35 24 22 32 18 35 26 24 17 25 26 22 25 22 18 21 24 17 9 21 13 31 27 26 14 20
22 22 37 9 30 53 49 45 32 33 39 33 64 66 62 56 52 48 47 47 44 29 37 37 30 30 18 15 28 25 19 31 11 26 21 20 16 25 22 25 19 16 18 15 22 16 16 21 18
18 65 56 17 31 44 30 23 31 34 39 58 64 62 57 54 51 50 49 47 40 42 37 27 30 37 20 33 27 17 32 20 25 15 22 21 18 22 21 23 23 17 24 16 21 16 24 19 19
18 28 29 19 36 39 48 28 19 35 36 50 61 61 54 52 49 48 45 46 38 35 31 20 20 42 19 18 21 25 24 24 29 20 25 26 19 17 25 22 17 14 14 10 24 17 13 20 11
28 26 34 26 32 42 15 18 28 34 34 55 64 61 55 51 49 45 44 41 40 36 34 30 27 25 14 31 24 22 17 21 14 21 16 26 26 22 26 18 22 13 21 20 13 12 15 15 19
25 27 31 25 31 45 26 15 27 29 43 55 62 59 56 52 49 45 45 43 38 39 33 32 30 27 23 27 22 23 14 15 8 21 14 10 19 28 26 17 11 19 16 11 4 14 15 16 10
33 38 25 23 25 41 32 31 34 34 42 49 58 58 54 53 51 45 45 45 39 40 38 32 30 33 25 30 21 16 6 10 6 15 14 17 14 26 22 15 15 24 14 12 19 10 10 7 16
36 36 35 26 33 26 25 23 22 38 38 45 48 53 50 48 52 46 45 46 42 40 42 38 34 35 30 29 26 17 14 13 4 11 15 12 10 19 27 16 30 26 8 12 21 17 7 15 21
47 39 13 7 34 36 43 29 32 47 44 44 43 38 43 47 46 51 48 47 47 44 44 42 36 36 34 23 23 16 20 8 15 19 11 15 12 16 23 27 22 15 14 17 24 14 16 11 6
45 37 33 26 45 34 46 32 34 32 49 45 46 44 48 50 41 55 55 52 51 48 47 48 45 38 42 27 24 18 32 26 11 12 16 19 14 21 17 18 20 20 14 16 26 21 15 7 3
34 38 28 47 34 23 40 25 63 55 31 12 20 52 55 57 59 54 55 53 55 53 47 49 49 38 48 33 31 25 13 12 22 17 25 25 17 11 13 22 21 22 20 22 23 14 15 15 4
30 34 27 28 36 29 32 19 25 39 46 43 61 61 63 58 55 58 58 58 59 55 51 51 51 44 46 46 34 21 26 24 32 25 25 23 21 23 11 13 12 14 22 21 17 17 26 11 7
41 28 31 15 23 25 19 30 26 20 9 52 89 69 61 52 58 63 61 58 57 58 56 53 51 49 48 48 34 32 25 15 18 20 14 17 9 17 19 15 14 16 16 21 24 21 25 17 14
35 31 17 19 20 19 30 18 14 35 13 38 9 61 74 32 67 76 71 64 61 63 61 57 50 48 50 45 48 35 33 22 19 23 16 21 12 16 21 14 13 24 20 21 23 19 22 25 19
33 32 18 28 21 23 36 24 19 30 15 31 57 41 89 76 82 77 79 71 57 61 68 64 51 50 50 44 41 40 35 30 24 16 24 15 11 12 25 22 10 18 19 20 29 22 21 21 24
38 34 36 33 39 29 18 25 18 20 24 23 57 45 60 20 75 45 65 63 64 74 73 74 56 50 49 52 48 41 36 31 24 21 18 14 18 13 10 17 12 17 16 18 17 23 23 23 15
27 28 34 27 25 28 23 35 30 32 34 36 45 49 44 41 27 17 20 56 45 22 73 70 65 57 49 51 53 50 42 35 34 30 28 22 17 20 25 24 16 17 23 20 19 21 11 26 22
21 26 26 34 28 18 18 3 33 33 31 32 43 42 34 35 35 46 29 9 53 35 40 63 64 60 55 50 49 49 47 42 45 43 41 35 38 32 21 14 35 24 21 21 21 26 21 25 25
36 34 32 21 37 11 13 3 27 26 38 38 35 38 36 34 39 38 36 38 36 36 14 36 17 42 52 47 53 53 49 44 41 49 48 37 42 45 36 27 35 35 32 24 24 19 26 20 19
Wind_Direction_500mb
171 135 56 245 317 228 182 202 121 116 145 112 75 75 76 43 76 111 138 136 139 137 139 134 131 127 120 114 108 100 97 92 89 88 91 94 96 97 97 89 88 86 86 88 87 83 86 85 91
122 217 248 268 242 205 79 82 92 133 104 97 92 81 68 85 106 127 126 138 134 134 132 133 128 122 114 106 103 102 97 96 87 88 92 90 95 102 99 98 95 92 94 93 85 85 83 86 98
162 199 254 224 258 24 86 140 132 117 119 131 83 70 80 109 120 125 132 133 133 129 141 131 128 121 117 112 105 101 97 95 91 86 93 88 87 106 111 104 99 99 99 100 92 84 86 93 101
162 220 253 254 354 42 154 158 140 102 119 83 96 76 111 114 122 129 133 132 131 140 140 124 120 113 111 103 100 96 99 96 88 91 93 93 96 94 107 107 111 106 106 104 99 93 90 100 108
221 255 261 249 87 3 49 328 255 118 124 88 102 116 115 118 127 132 135 135 137 140 138 125 120 116 111 106 103 101 100 96 95 91 97 96 95 100 107 111 113 110 107 101 100 96 91 100 109
236 225 240 141 99 4 291 352 100 105 107 100 109 123 116 128 135 139 135 134 134 131 136 135 124 117 114 107 109 103 100 98 97 96 98 99 97 101 103 110 112 114 108 102 103 101 91 100 105
245 260 145 102 131 164 194 309 84 51 146 128 129 123 132 137 142 142 134 137 135 132 139 134 128 125 117 115 110 103 98 99 97 95 98 97 95 98 103 113 117 114 108 105 101 93 95 100 107
214 291 309 134 149 145 78 90 26 4 114 129 125 137 145 146 150 141 137 140 128 125 118 139 118 105 106 120 116 108 100 98 99 97 96 88 88 92 93 115 115 106 100 101 93 91 95 105 99
183 296 208 147 173 129 134 120 63 243 326 181 159 148 145 146 150 140 140 129 128 123 138 134 124 132 130 122 108 102 102 107 104 103 102 95 86 82 113 116 109 98 95 94 86 85 94 92 89
125 42 250 131 157 137 132 112 113 282 332 153 130 138 145 148 155 147 140 140 131 132 150 148 149 141 123 131 88 83 98 112 109 101 96 90 101 106 112 114 103 98 101 95 91 96 79 90 79
129 210 146 115 123 142 146 142 175 229 270 143 143 146 149 152 153 151 147 141 138 155 148 151 116 163 135 142 101 102 99 86 111 108 103 107 114 98 103 108 103 107 113 117 105 94 68 44 90
76 315 275 131 129 150 155 159 173 180 310 175 147 149 149 154 155 154 147 137 137 149 146 133 145 126 117 165 114 103 116 120 103 119 117 124 109 122 130 101 80 129 107 127 93 81 91 79 93
105 329 281 132 129 148 168 183 143 130 199 188 152 150 152 154 157 154 148 141 146 153 134 134 164 151 115 170 129 126 146 130 130 110 113 121 135 102 111 119 110 72 79 98 79 85 111 95 99
174 183 245 172 120 136 157 154 141 147 173 153 151 153 157 157 158 151 148 144 151 147 135 153 161 153 139 130 139 133 116 137 121 134 126 136 139 120 137 106 119 154 123 95 116 127 109 111 98
231 209 238 214 141 156 149 142 124 136 134 146 153 157 159 161 155 153 148 146 155 154 149 149 152 160 152 152 144 126 123 166 161 157 159 148 150 142 155 148 125 160 158 137 138 114 137 111 92
229 232 219 184 176 142 120 145 134 136 144 152 158 162 160 162 156 158 154 152 160 154 156 157 154 159 170 160 147 135 153 160 168 143 163 171 164 142 135 117 148 195 123 100 103 126 130 114 95
208 223 211 212 162 142 142 97 317 143 154 162 163 164 162 161 157 162 158 159 159 159 156 158 163 165 170 149 137 175 193 164 119 130 150 176 141 145 145 150 200 128 132 147 152 105 103 125 139
208 229 202 180 174 124 123 150 200 181 160 166 168 167 166 165 162 165 163 160 160 161 165 163 167 181 174 147 155 159 161 134 325 153 130 152 135 143 132 150 168 133 136 165 156 136 128 64 159
218 224 167 157 262 127 138 133 207 174 178 172 171 171 164 172 164 167 168 164 165 162 168 173 179 191 178 155 147 165 160 145 142 107 141 114 98 139 149 149 148 145 167 188 155 153 143 53 150
255 236 169 35 309 105 145 153 228 170 178 178 176 172 160 182 171 166 172 171 170 168 173 179 186 196 167 168 168 186 176 152 185 199 162 160 154 138 124 128 127 145 174 183 152 165 146 89 157
240 257 158 146 268 159 152 135 220 180 159 177 174 190 178 188 198 168 177 176 172 175 179 183 190 199 162 176 185 214 199 174 178 217 191 179 180 148 152 149 170 183 168 191 174 158 164 99 3
230 236 232 165 217 201 188 166 181 173 136 127 191 183 189 187 195 176 180 177 177 179 185 189 189 196 165 170 197 197 186 160 187 210 190 162 174 158 173 171 182 185 178 170 162 171 179 154 164
240 230 144 215 202 229 187 140 179 161 153 153 212 209 181 186 184 183 182 181 181 179 183 195 192 197 180 176 185 194 188 211 180 197 210 172 176 164 187 192 184 184 151 160 163 189 163 178 213
239 280 235 215 213 231 196 230 154 158 203 183 197 198 176 178 189 184 184 184 179 176 179 194 195 195 184 181 188 173 204 193 169 200 228 184 154 157 174 196 197 182 187 177 176 198 207 197 196
230 251 195 212 211 229 208 197 112 130 134 236 137 171 166 164 201 184 191 190 182 175 175 190 197 191 190 191 194 195 192 175 156 168 176 191 183 198 193 192 231 193 177 192 190 198 194 202 207
213 235 202 210 218 228 256 130 151 139 134 153 184 152 166 179 198 194 189 188 181 183 182 188 193 191 193 197 196 200 198 194 188 183 200 200 180 219 242 198 230 203 204 202 209 202 197 212 215
195 235 228 207 220 226 112 91 114 141 128 121 70 70 52 179 182 175 193 184 186 191 187 189 192 196 201 204 203 204 204 204 181 194 216 213 209 231 244 194 209 207 218 202 212 207 196 211 223
267 232 238 250 275 244 145 157 150 162 105 88 69 62 75 55 46 172 255 171 179 220 195 196 200 202 206 206 206 208 213 206 192 195 214 204 216 236 255 203 206 200 234 220 215 197 213 210 214
217 248 254 257 247 229 152 358 147 142 113 103 93 81 62 67 54 74 100 181 226 264 205 198 204 206 210 211 207 204 210 211 203 201 214 201 206 215 209 206 201 214 221 235 232 201 213 218 228
247 228 239 238 250 303 53 93 335 104 104 95 85 83 75 59 69 71 68 82 143 230 25 222 189 189 211 214 205 209 210 207 211 207 211 215 201 221 221 217 195 210 217 232 240 230 214 238 238
Wind_Speed_850mb
10 17 4 13 3 8 3 6 17 17 9 36 33 37 36 32 14 29 64 55 53 46 45 40 38 36 33 29 27 25 21 21 20 19 19 18 17 20 23 23 25 29 31 34 36 36 35 38 43
11 6 9 7 7 4 5 7 17 4 39 35 38 57 43 41 58 69 62 59 52 47 40 41 37 32 30 26 26 22 22 23 20 23 22 21 18 20 23 23 25 27 30 35 36 35 35 39 44
18 11 4 6 6 3 6 6 14 24 37 33 46 40 35 54 68 60 68 56 50 48 40 40 36 30 26 26 24 23 24 23 21 22 23 21 22 21 22 22 27 26 29 34 34 36 37 40 44
10 8 12 6 3 20 21 17 7 27 38 36 36 30 55 47 60 68 63 56 52 43 36 39 33 29 27 24 25 24 25 24 22 23 24 23 22 24 23 25 25 28 27 29 32 33 38 38 47
12 9 7 5 9 4 10 5 11 23 21 29 63 47 58 49 61 61 61 50 54 42 38 36 30 28 26 22 27 23 26 25 25 24 24 23 24 25 23 26 25 28 30 30 30 32 36 35 42
10 7 6 6 10 4 14 19 19 26 30 47 61 56 47 60 60 57 55 54 49 43 36 31 28 27 24 21 25 24 24 24 24 23 24 27 28 29 27 29 28 30 29 29 31 32 33 33 40
14 4 1 20 10 9 4 9 12 6 39 51 50 43 50 60 55 56 54 49 43 44 29 24 25 24 22 22 23 21 20 22 23 25 25 28 29 29 29 29 31 31 29 29 30 31 30 36 44
17 7 4 15 20 13 5 10 20 16 29 39 46 41 54 64 56 61 54 40 62 41 27 26 15 23 21 24 23 20 19 21 24 28 34 36 32 35 33 31 32 31 30 30 33 33 35 40 51
14 6 3 14 21 14 13 9 10 7 8 9 15 61 67 64 55 63 55 55 48 34 36 26 30 24 18 22 24 22 20 24 28 34 32 27 30 26 27 27 32 34 32 36 37 39 41 47 44
12 2 10 22 18 28 25 16 16 9 8 22 49 63 68 64 55 57 59 47 42 35 31 31 28 25 33 22 26 23 22 28 25 20 26 34 28 23 23 33 35 37 43 41 34 26 27 24 29
17 8 13 21 38 50 44 37 23 11 16 33 69 75 70 62 54 51 53 53 42 31 39 38 20 23 42 18 27 25 32 27 30 23 29 27 23 16 30 35 40 35 33 20 30 26 20 21 19
13 30 39 41 29 53 43 48 34 27 18 16 63 71 69 61 55 51 49 49 40 41 42 35 24 22 32 18 35 26 24 17 25 26 22 25 22 18 21 24 17 9 21 13 31 27 26 14 20
22 22 37 9 30 53 49 45 32 33 39 33 64 66 62 56 52 48 47 47 44 29 37 37 30 30 18 15 28 25 19 31 11 26 21 20 16 25 22 25 19 16 18 15 22 16 16 21 18
18 65 56 17 31 44 30 23 31 34 39 58 64 62 57 54 51 50 49 47 40 42 37 27 30 37 20 33 27 17 32 20 25 15 22 21 18 22 21 23 23 17 24 16 21 16 24 19 19
18 28 29 19 36 39 48 28 19 35 36 50 61 61 54 52 49 48 45 46 38 35 31 20 20 42 19 18 21 25 24 24 29 20 25 26 19 17 25 22 17 14 14 10 24 17 13 20 11
28 26 34 26 32 42 15 18 28 34 34 55 64 61 55 51 49 45 44 41 40 36 34 30 27 25 14 31 24 22 17 21 14 21 16 26 26 22 26 18 22 13 21 20 13 12 15 15 19
25 27 31 25 31 45 26 15 27 29 43 55 62 59 56 52 49 45 45 43 38 39 33 32 30 27 23 27 22 23 14 15 8 21 14 10 19 28 26 17 11 19 16 11 4 14 15 16 10
33 38 25 23 25 41 32 31 34 34 42 49 58 58 54 53 51 45 45 45 39 40 38 32 30 33 25 30 21 16 6 10 6 15 14 17 14 26 22 15 15 24 14 12 19 10 10 7 16
36 36 35 26 33 26 25 23 22 38 38 45 48 53 50 48 52 46 45 46 42 40 42 38 34 35 30 29 26 17 14 13 4 11 15 12 10 19 27 16 30 26 8 12 21 17 7 15 21
47 39 13 7 34 36 43 29 32 47 44 44 43 38 43 47 46 51 48 47 47 44 44 42 36 36 34 23 23 16 20 8 15 19 11 15 12 16 23 27 22 15 14 17 24 14 16 11 6
45 37 33 26 45 34 46 32 34 32 49 45 46 44 48 50 41 55 55 52 51 48 47 48 45 38 42 27 24 18 32 26 11 12 16 19 14 21 17 18 20 20 14 16 26 21 15 7 3
34 38 28 47 34 23 40 25 63 55 31 12 20 52 55 57 59 54 55 53 55 53 47 49 49 38 48 33 31 25 13 12 22 17 25 25 17 11 13 22 21 22 20 22 23 14 15 15 4
30 34 27 28 36 29 32 19 25 39 46 43 61 61 63 58 55 58 58 58 59 55 51 51 51 44 46 46 34 21 26 24 32 25 25 23 21 23 11 13 12 14 22 21 17 17 26 11 7
41 28 31 15 23 25 19 30 26 20 9 52 89 69 61 52 58 63 61 58 57 58 56 53 51 49 48 48 34 32 25 15 18 20 14 17 9 17 19 15 14 16 16 21 24 21 25 17 14
35 31 17 19 20 19 30 18 14 35 13 38 9 61 74 32 67 76 71 64 61 63 61 57 50 48 50 45 48 35 33 22 19 23 16 21 12 16 21 14 13 24 20 21 23 19 22 25 19
33 32 18 28 21 23 36 24 19 30 15 31 57 41 89 76 82 77 79 71 57 61 68 64 51 50 50 44 41 40 35 30 24 16 24 15 11 12 25 22 10 18 19 20 29 22 21 21 24
38 34 36 33 39 29 18 25 18 20 24 23 57 45 60 20 75 45 65 63 64 74 73 74 56 50 49 52 48 41 36 31 24 21 18 14 18 13 10 17 12 17 16 18 17 23 23 23 15
27 28 34 27 25 28 23 35 30 32 34 36 45 49 44 41 27 17 20 56 45 22 73 70 65 57 49 51 53 50 42 35 34 30 28 22 17 20 25 24 16 17 23 20 19 21 11 26 22
21 26 26 34 28 18 18 3 33 33 31 32 43 42 34 35 35 46 29 9 53 35 40 63 64 60 55 50 49 49 47 42 45 43 41 35 38 32 21 14 35 24 21 21 21 26 21 25 25
36 34 32 21 37 11 13 3 27 26 38 38 35 38 36 34 39 38 36 38 36 36 14 36 17 42 52 47 53 53 49 44 41 49 48 37 42 45 36 27 35 35 32 24 24 19 26 20 19
Wind_Direction_850mb
171 135 56 245 317 228 182 202 121 116 145 112 75 75 76 43 76 111 138 136 139 137 139 134 131 127 120 114 108 100 97 92 89 88 91 94 96 97 97 89 88 86 86 88 87 83 86 85 91
122 217 248 268 242 205 79 82 92 133 104 97 92 81 68 85 106 127 126 138 134 134 132 133 128 122 114 106 103 102 97 96 87 88 92 90 95 102 99 98 95 92 94 93 85 85 83 86 98
162 199 254 224 258 24 86 140 132 117 119 131 83 70 80 109 120 125 132 133 133 129 141 131 128 121 117 112 105 101 97 95 91 86 93 88 87 106 111 104 99 99 99 100 92 84 86 93 101
162 220 253 254 354 42 154 158 140 102 119 83 96 76 111 114 122 129 133 132 131 140 140 124 120 113 111 103 100 96 99 96 88 91 93 93 96 94 107 107 111 106 106 104 99 93 90 100 108
221 255 261 249 87 3 49 328 255 118 124 88 102 116 115 118 127 132 135 135 137 140 138 125 120 116 111 106 103 101 100 96 95 91 97 96 95 100 107 111 113 110 107 101 100 96 91 100 109
236 225 240 141 99 4 291 352 100 105 107 100 109 123 116 128 135 139 135 134 134 131 136 135 124 117 114 107 109 103 100 98 97 96 98 99 97 101 103 110 112 114 108 102 103 101 91 100 105
245 260 145 102 131 164 194 309 84 51 146 128 129 123 132 137 142 142 134 137 135 132 139 134 128 125 117 115 110 103 98 99 97 95 98 97 95 98 103 113 117 114 108 105 101 93 95 100 107
214 291 309 134 149 145 78 90 26 4 114 129 125 137 145 146 150 141 137 140 128 125 118 139 118 105 106 120 116 108 100 98 99 97 96 88 88 92 93 115 115 106 100 101 93 91 95 105 99
183 296 208 147 173 129 134 120 63 243 326 181 159 148 145 146 150 140 140 129 128 123 138 134 124 132 130 122 108 102 102 107 104 103 102 95 86 82 113 116 109 98 95 94 86 85 94 92 89
125 42 250 131 157 137 132 112 113 282 332 153 130 138 145 148 155 147 140 140 131 132 150 148 149 141 123 131 88 83 98 112 109 101 96 90 101 106 112 114 103 98 101 95 91 96 79 90 79
129 210 146 115 123 142 146 142 175 229 270 143 143 146 149 152 153 151 147 141 138 155 148 151 116 163 135 142 101 102 99 86 111 108 103 107 114 98 103 108 103 107 113 117 105 94 68 44 90
76 315 275 131 129 150 155 159 173 180 310 175 147 149 149 154 155 154 147 137 137 149 146 133 145 126 117 165 114 103 116 120 103 119 117 124 109 122 130 101 80 129 107 127 93 81 91 79 93
105 329 281 132 129 148 168 183 143 130 199 188 152 150 152 154 157 154 148 141 146 153 134 134 164 151 115 170 129 126 146 130 130 110 113 121 135 102 111 119 110 72 79 98 79 85 111 95 99
174 183 245 172 120 136 157 154 141 147 173 153 151 153 157 157 158 151 148 144 151 147 135 153 161 153 139 130 139 133 116 137 121 134 126 136 139 120 137 106 119 154 123 95 116 127 109 111 98
231 209 238 214 141 156 149 142 124 136 134 146 153 157 159 161 155 153 148 146 155 154 149 149 152 160 152 152 144 126 123 166 161 157 159 148 150 142 155 148 125 160 158 137 138 114 137 111 92
229 232 219 184 176 142 120 145 134 136 144 152 158 162 160 162 156 158 154 152 160 154 156 157 154 159 170 160 147 135 153 160 168 143 163 171 164 142 135 117 148 195 123 100 103 126 130 114 95
208 223 211 212 162 142 142 97 317 143 154 162 163 164 162 161 157 162 158 159 159 159 156 158 163 165 170 149 137 175 193 164 119 130 150 176 141 145 145 150 200 128 132 147 152 105 103 125 139
208 229 202 180 174 124 123 150 200 181 160 166 168 167 166 165 162 165 163 160 160 161 165 163 167 181 174 147 155 159 161 134 325 153 130 152 135 143 132 150 168 133 136 165 156 136 128 64 159
218 224 167 157 262 127 138 133 207 174 178 172 171 171 164 172 164 167 168 164 165 162 168 173 179 191 178 155 147 165 160 145 142 107 141 114 98 139 149 149 148 145 167 188 155 153 143 53 150
255 236 169 35 309 105 145 153 228 170 178 178 176 172 160 182 171 166 172 171 170 168 173 179 186 196 167 168 168 186 176 152 185 199 162 160 154 138 124 128 127 145 174 183 152 165 146 89 157
240 257 158 146 268 159 152 135 220 180 159 177 174 190 178 188 198 168 177 176 172 175 179 183 190 199 162 176 185 214 199 174 178 217 191 179 180 148 152 149 170 183 168 191 174 158 164 99 3
230 236 232 165 217 201 188 166 181 173 136 127 191 183 189 187 195 176 180 177 177 179 185 189 189 196 165 170 197 197 186 160 187 210 190 162 174 158 173 171 182 185 178 170 162 171 179 154 164
240 230 144 215 202 229 187 140 179 161 153 153 212 209 181 186 184 183 182 181 181 179 183 195 192 197 180 176 185 194 188 211 180 197 210 172 176 164 187 192 184 184 151 160 163 189 163 178 213
239 280 235 215 213 231 196 230 154 158 203 183 197 198 176 178 189 184 184 184 179 176 179 194 195 195 184 181 188 173 204 193 169 200 228 184 154 157 174 196 197 182 187 177 176 198 207 197 196
230 251 195 212 211 229 208 197 112 130 134 236 137 171 166 164 201 184 191 190 182 175 175 190 197 191 190 191 194 195 192 175 156 168 176 191 183 198 193 192 231 193 177 192 190 198 194 202 207
213 235 202 210 218 228 256 130 151 139 134 153 184 152 166 179 198 194 189 188 181 183 182 188 193 191 193 197 196 200 198 194 188 183 200 200 180 219 242 198 230 203 204 202 209 202 197 212 215
195 235 228 207 220 226 112 91 114 141 128 121 70 70 52 179 182 175 193 184 186 191 187 189 192 196 201 204 203 204 204 204 181 194 216 213 209 231 244 194 209 207 218 202 212 207 196 211 223
267 232 238 250 275 244 145 157 150 162 105 88 69 62 75 55 46 172 255 171 179 220 195 196 200 202 206 206 206 208 213 206 192 195 214 204 216 236 255 203 206 200 234 220 215 197 213 210 214
217 248 254 257 247 229 152 358 147 142 113 103 93 81 62 67 54 74 100 181 226 264 205 198 204 206 210 211 207 204 210 211 203 201 214 201 206 215 209 206 201 214 221 235 232 201 213 218 228
247 228 239 238 250 303 53 93 335 104 104 95 85 83 75 59 69 71 68 82 143 230 25 222 189 189 211 214 205 209 210 207 211 207 211 215 201 221 221 217 195 210 217 232 240 230 214 238 238